Time,TemperatureF,DewpointF,PressureIn,WindDirection,WindDirectionDegrees,WindSpeedMPH,WindSpeedGustMPH,Humidity,HourlyPrecipIn,Conditions,Clouds,dailyrainin,SoftwareType,DateUTC
2013-03-26 00:00:00,34.3,20.2,29.86,NNE,22,0.0,0.0,56,0.00,,SKC,0.00,VWS V14.01,2013-03-26 04:00:00,
2013-03-26 00:01:00,34.3,20.2,29.86,NNE,22,0.0,0.0,56,0.00,,SKC,0.00,VWS V14.01,2013-03-26 04:01:00,
2013-03-26 00:06:00,34.3,20.2,29.86,NNE,22,0.0,0.0,56,0.00,,SKC,0.00,VWS V14.01,2013-03-26 04:06:00,
2013-03-26 00:11:00,34.3,20.2,29.86,NNW,338,0.6,0.6,56,0.00,,SKC,0.00,VWS V14.01,2013-03-26 04:11:00,
2013-03-26 00:16:00,34.3,20.2,29.86,NNE,22,0.0,0.0,56,0.00,,SKC,0.00,VWS V14.01,2013-03-26 04:16:00,
2013-03-26 00:22:00,34.3,20.2,29.86,NNE,22,0.0,0.0,56,0.00,,SKC,0.00,VWS V14.01,2013-03-26 04:22:00,
2013-03-26 00:27:00,34.3,20.2,29.86,North,0,1.7,1.7,56,0.00,,SKC,0.00,VWS V14.01,2013-03-26 04:27:00,
2013-03-26 00:32:00,34.3,20.2,29.86,North,0,0.0,0.0,56,0.00,,SKC,0.00,VWS V14.01,2013-03-26 04:32:00,
2013-03-26 00:37:00,34.3,20.2,29.86,NNE,22,0.0,0.2,56,0.00,,SKC,0.00,VWS V14.01,2013-03-26 04:37:00,
2013-03-26 00:42:00,34.1,20.1,29.86,North,0,0.6,0.6,56,0.00,,SKC,0.00,VWS V14.01,2013-03-26 04:42:00,
2013-03-26 00:47:00,34.1,20.1,29.86,NNE,22,0.0,0.0,56,0.00,,SKC,0.00,VWS V14.01,2013-03-26 04:47:00,
2013-03-26 00:52:00,34.1,20.1,29.86,NNW,338,0.8,0.8,56,0.00,,SKC,0.00,VWS V14.01,2013-03-26 04:52:00,
2013-03-26 00:57:00,34.1,20.1,29.86,WNW,292,2.6,2.6,56,0.00,,SKC,0.00,VWS V14.01,2013-03-26 04:57:00,
2013-03-26 01:02:00,33.9,19.9,29.86,North,0,0.4,0.4,56,0.00,,SKC,0.00,VWS V14.01,2013-03-26 05:02:00,
2013-03-26 01:07:00,33.9,19.9,29.87,North,0,0.4,2.0,56,0.00,,SKC,0.00,VWS V14.01,2013-03-26 05:07:00,
2013-03-26 01:12:00,33.9,19.9,29.86,NW,315,3.3,4.4,56,0.00,,SKC,0.00,VWS V14.01,2013-03-26 05:12:00,
2013-03-26 01:17:00,33.8,19.8,29.87,North,0,1.1,1.1,56,0.00,,SKC,0.00,VWS V14.01,2013-03-26 05:17:00,
2013-03-26 01:22:00,33.8,19.8,29.87,NNW,338,0.0,1.1,56,0.00,,SKC,0.00,VWS V14.01,2013-03-26 05:22:00,
2013-03-26 01:27:00,33.8,19.8,29.87,NNE,22,0.0,1.5,56,0.00,,SKC,0.00,VWS V14.01,2013-03-26 05:27:00,
2013-03-26 01:32:00,33.8,20.2,29.86,NW,315,0.8,0.8,57,0.00,,SKC,0.00,VWS V14.01,2013-03-26 05:32:00,
2013-03-26 01:37:00,33.6,20.0,29.87,NNW,338,0.8,0.8,57,0.00,,SKC,0.00,VWS V14.01,2013-03-26 05:37:00,
2013-03-26 01:42:00,33.6,20.0,29.87,NNW,338,0.4,0.8,57,0.00,,SKC,0.00,VWS V14.01,2013-03-26 05:42:00,
2013-03-26 01:47:00,33.4,19.8,29.87,North,0,0.0,0.0,57,0.00,,SKC,0.00,VWS V14.01,2013-03-26 05:47:00,
2013-03-26 01:52:00,33.4,19.8,29.87,NNE,22,0.0,0.0,57,0.00,,SKC,0.00,VWS V14.01,2013-03-26 05:52:00,
2013-03-26 01:57:00,33.4,19.8,29.88,NNW,338,0.0,1.1,57,0.00,,SKC,0.00,VWS V14.01,2013-03-26 05:57:00,
2013-03-26 02:02:00,33.4,19.8,29.87,North,0,1.3,1.3,57,0.00,,SKC,0.00,VWS V14.01,2013-03-26 06:02:00,
2013-03-26 02:07:00,33.4,19.8,29.87,North,0,0.0,1.3,57,0.00,,SKC,0.00,VWS V14.01,2013-03-26 06:07:00,
2013-03-26 02:12:00,33.4,19.8,29.87,NNW,338,0.0,1.3,57,0.00,,SKC,0.00,VWS V14.01,2013-03-26 06:12:00,
2013-03-26 02:17:00,33.4,19.8,29.87,NNW,338,0.0,0.0,57,0.00,,SKC,0.00,VWS V14.01,2013-03-26 06:17:00,
2013-03-26 02:22:00,33.2,19.6,29.87,North,0,0.0,0.8,57,0.00,,SKC,0.00,VWS V14.01,2013-03-26 06:22:00,
2013-03-26 02:27:00,33.2,19.6,29.88,North,0,0.0,0.8,57,0.00,,SKC,0.00,VWS V14.01,2013-03-26 06:27:00,
2013-03-26 02:32:00,33.0,19.4,29.88,North,0,0.0,0.0,57,0.00,,SKC,0.00,VWS V14.01,2013-03-26 06:32:00,
2013-03-26 02:37:00,32.9,19.4,29.88,NW,315,0.0,0.0,57,0.00,,SKC,0.00,VWS V14.01,2013-03-26 06:37:00,
2013-03-26 02:42:00,32.9,19.4,29.88,NNW,338,0.0,0.0,57,0.00,,SKC,0.00,VWS V14.01,2013-03-26 06:42:00,
2013-03-26 02:48:00,32.9,19.4,29.88,North,0,0.0,0.0,57,0.00,,SKC,0.00,VWS V14.01,2013-03-26 06:48:00,
2013-03-26 02:53:00,32.9,19.4,29.88,NNE,22,0.6,0.8,57,0.00,,SKC,0.00,VWS V14.01,2013-03-26 06:53:00,
2013-03-26 02:58:00,32.7,19.2,29.88,NNW,338,0.0,0.8,57,0.00,,SKC,0.00,VWS V14.01,2013-03-26 06:58:00,
2013-03-26 03:03:00,32.7,19.6,29.88,NW,315,5.8,5.8,58,0.00,,SKC,0.00,VWS V14.01,2013-03-26 07:03:00,
2013-03-26 03:08:00,32.7,19.6,29.88,North,0,0.4,5.8,58,0.00,,SKC,0.00,VWS V14.01,2013-03-26 07:08:00,
2013-03-26 03:13:00,32.7,19.6,29.88,NNE,22,0.0,5.8,58,0.00,,SKC,0.00,VWS V14.01,2013-03-26 07:13:00,
2013-03-26 03:18:00,32.7,19.6,29.88,NNE,22,0.0,0.0,58,0.00,,SKC,0.00,VWS V14.01,2013-03-26 07:18:00,
2013-03-26 03:23:00,32.7,19.6,29.88,NNE,22,0.0,0.0,58,0.00,,SKC,0.00,VWS V14.01,2013-03-26 07:23:00,
2013-03-26 03:28:00,32.7,19.6,29.88,North,0,0.0,0.0,58,0.00,,SKC,0.00,VWS V14.01,2013-03-26 07:28:00,
2013-03-26 03:33:00,32.5,19.4,29.89,NNE,22,0.0,0.6,58,0.00,,SKC,0.00,VWS V14.01,2013-03-26 07:33:00,
2013-03-26 03:38:00,32.7,19.6,29.88,North,0,0.0,1.3,58,0.00,,SKC,0.00,VWS V14.01,2013-03-26 07:38:00,
2013-03-26 03:43:00,32.7,19.6,29.88,NNE,22,0.6,1.3,58,0.00,,SKC,0.00,VWS V14.01,2013-03-26 07:43:00,
2013-03-26 03:48:00,32.7,19.6,29.88,NNW,338,2.2,2.2,58,0.00,,SKC,0.00,VWS V14.01,2013-03-26 07:48:00,
2013-03-26 03:53:00,32.7,19.6,29.88,NNW,338,0.0,3.5,58,0.00,,SKC,0.00,VWS V14.01,2013-03-26 07:53:00,
2013-03-26 03:58:00,32.7,19.6,29.88,NW,315,0.0,3.5,58,0.00,,SKC,0.00,VWS V14.01,2013-03-26 07:58:00,
2013-03-26 04:03:00,32.7,19.6,29.88,North,0,0.8,0.8,58,0.00,,SKC,0.00,VWS V14.01,2013-03-26 08:03:00,
2013-03-26 04:08:00,32.5,19.4,29.88,NNW,338,0.0,0.8,58,0.00,,SKC,0.00,VWS V14.01,2013-03-26 08:08:00,
2013-03-26 04:13:00,32.7,19.6,29.88,North,0,0.0,0.8,58,0.00,,SKC,0.00,VWS V14.01,2013-03-26 08:13:00,
2013-03-26 04:18:00,32.7,19.6,29.88,North,0,0.0,0.0,58,0.00,,SKC,0.00,VWS V14.01,2013-03-26 08:18:00,
2013-03-26 04:23:00,32.7,19.6,29.89,North,0,0.0,0.0,58,0.00,,SKC,0.00,VWS V14.01,2013-03-26 08:23:00,
2013-03-26 04:28:00,32.7,19.6,29.89,NNE,22,0.0,0.0,58,0.00,,SKC,0.00,VWS V14.01,2013-03-26 08:28:00,
2013-03-26 04:33:00,32.7,19.6,29.88,North,0,2.0,2.0,58,0.00,,SKC,0.00,VWS V14.01,2013-03-26 08:33:00,
2013-03-26 04:38:00,32.7,19.6,29.88,North,0,0.6,2.0,58,0.00,,SKC,0.00,VWS V14.01,2013-03-26 08:38:00,
2013-03-26 04:43:00,32.7,19.6,29.89,North,0,0.0,2.0,58,0.00,,SKC,0.00,VWS V14.01,2013-03-26 08:43:00,
2013-03-26 04:48:00,32.7,19.6,29.88,North,0,0.6,0.6,58,0.00,,SKC,0.00,VWS V14.01,2013-03-26 08:48:00,
2013-03-26 04:53:00,32.7,19.6,29.89,North,0,0.0,0.6,58,0.00,,SKC,0.00,VWS V14.01,2013-03-26 08:53:00,
2013-03-26 04:58:00,32.7,19.6,29.89,NNW,338,0.0,0.6,58,0.00,,SKC,0.00,VWS V14.01,2013-03-26 08:58:00,
2013-03-26 05:03:00,32.7,19.6,29.89,North,0,0.6,0.6,58,0.00,,SKC,0.00,VWS V14.01,2013-03-26 09:03:00,
2013-03-26 05:08:00,32.7,19.6,29.89,NNW,338,0.0,0.6,58,0.00,,SKC,0.00,VWS V14.01,2013-03-26 09:08:00,
2013-03-26 05:13:00,32.7,19.6,29.89,North,0,0.0,0.6,58,0.00,,SKC,0.00,VWS V14.01,2013-03-26 09:13:00,
2013-03-26 05:18:00,32.7,19.6,29.89,NNW,338,2.4,2.4,58,0.00,,SKC,0.00,VWS V14.01,2013-03-26 09:18:00,
2013-03-26 05:23:00,32.7,19.6,29.89,North,0,0.0,2.4,58,0.00,,SKC,0.00,VWS V14.01,2013-03-26 09:23:00,
2013-03-26 05:28:00,32.7,19.6,29.89,North,0,0.0,2.4,58,0.00,,SKC,0.00,VWS V14.01,2013-03-26 09:28:00,
2013-03-26 05:33:00,32.7,19.6,29.89,North,0,1.1,1.1,58,0.00,,SKC,0.00,VWS V14.01,2013-03-26 09:33:00,
2013-03-26 05:38:00,32.5,19.8,29.90,NNE,22,0.0,1.1,59,0.00,,SKC,0.00,VWS V14.01,2013-03-26 09:38:00,
2013-03-26 05:43:00,32.5,19.8,29.90,NNE,22,0.0,1.1,59,0.00,,SKC,0.00,VWS V14.01,2013-03-26 09:43:00,
2013-03-26 05:48:00,32.7,20.0,29.90,North,0,2.2,2.2,59,0.00,,SKC,0.00,VWS V14.01,2013-03-26 09:48:00,
2013-03-26 05:53:00,32.5,19.8,29.90,North,0,0.0,2.2,59,0.00,,SKC,0.00,VWS V14.01,2013-03-26 09:53:00,
2013-03-26 05:58:00,32.7,20.0,29.90,North,0,2.2,2.2,59,0.00,,SKC,0.00,VWS V14.01,2013-03-26 09:58:00,
2013-03-26 06:03:00,32.7,20.0,29.90,North,0,0.0,0.0,59,0.00,,SKC,0.00,VWS V14.01,2013-03-26 10:03:00,
2013-03-26 06:08:00,32.5,19.8,29.90,NNW,338,1.7,1.7,59,0.00,,SKC,0.00,VWS V14.01,2013-03-26 10:08:00,
2013-03-26 06:13:00,32.5,20.2,29.90,North,0,0.8,1.7,60,0.00,,SKC,0.00,VWS V14.01,2013-03-26 10:13:00,
2013-03-26 06:18:00,32.5,20.2,29.90,North,0,0.8,0.8,60,0.00,,SKC,0.00,VWS V14.01,2013-03-26 10:18:00,
2013-03-26 06:23:00,32.5,20.2,29.91,NNE,22,0.0,60.8,60,0.00,,SKC,0.00,VWS V14.01,2013-03-26 10:23:00,
2013-03-26 06:29:00,32.5,20.2,29.91,North,0,0.0,60.8,60,0.00,,SKC,0.00,VWS V14.01,2013-03-26 10:29:00,
2013-03-26 06:34:00,32.5,20.2,29.91,NNW,338,0.0,0.0,60,0.00,,SKC,0.00,VWS V14.01,2013-03-26 10:34:00,
2013-03-26 06:39:00,32.5,20.2,29.91,NNE,22,0.0,1.1,60,0.00,,SKC,0.00,VWS V14.01,2013-03-26 10:39:00,
2013-03-26 06:44:00,32.5,20.2,29.91,NNE,22,1.7,1.7,60,0.00,,SKC,0.00,VWS V14.01,2013-03-26 10:44:00,
2013-03-26 06:49:00,32.5,20.2,29.91,North,0,0.6,0.6,60,0.00,,SKC,0.00,VWS V14.01,2013-03-26 10:49:00,
2013-03-26 06:54:00,32.3,20.0,29.91,NNE,22,0.0,1.7,60,0.00,,SKC,0.00,VWS V14.01,2013-03-26 10:54:00,
2013-03-26 06:59:00,32.3,20.0,29.91,North,0,0.6,1.7,60,0.00,,SKC,0.00,VWS V14.01,2013-03-26 10:59:00,
2013-03-26 07:04:00,32.3,20.0,29.91,North,0,0.6,0.8,60,0.00,,SKC,0.00,VWS V14.01,2013-03-26 11:04:00,
2013-03-26 07:09:00,32.3,20.0,29.91,North,0,0.0,0.8,60,0.00,,SKC,0.00,VWS V14.01,2013-03-26 11:09:00,
2013-03-26 07:14:00,32.3,20.0,29.92,North,0,0.0,0.8,60,0.00,,SKC,0.00,VWS V14.01,2013-03-26 11:14:00,
2013-03-26 07:19:00,32.3,20.0,29.92,North,0,0.0,0.0,60,0.00,,SKC,0.00,VWS V14.01,2013-03-26 11:19:00,
2013-03-26 07:24:00,32.3,20.0,29.92,North,0,0.0,0.8,60,0.00,,SKC,0.00,VWS V14.01,2013-03-26 11:24:00,
2013-03-26 07:29:00,32.3,20.0,29.92,NNE,22,0.0,0.8,60,0.00,,SKC,0.00,VWS V14.01,2013-03-26 11:29:00,
2013-03-26 07:34:00,32.1,19.8,29.93,NNW,338,0.8,0.8,60,0.00,,SKC,0.00,VWS V14.01,2013-03-26 11:34:00,
2013-03-26 07:39:00,32.3,20.4,29.93,NNW,338,0.0,0.8,61,0.00,,SKC,0.00,VWS V14.01,2013-03-26 11:39:00,
2013-03-26 07:44:00,32.1,20.2,29.93,NNE,22,0.0,2.9,61,0.00,,SKC,0.00,VWS V14.01,2013-03-26 11:44:00,
2013-03-26 07:49:00,32.3,20.4,29.93,NW,315,1.7,1.7,61,0.00,,SKC,0.00,VWS V14.01,2013-03-26 11:49:00,
2013-03-26 07:54:00,32.1,20.2,29.94,NNW,338,0.8,1.7,61,0.00,,SKC,0.00,VWS V14.01,2013-03-26 11:54:00,
2013-03-26 07:59:00,32.3,20.4,29.94,North,0,0.8,1.7,61,0.00,,SKC,0.00,VWS V14.01,2013-03-26 11:59:00,
2013-03-26 08:04:00,32.3,20.4,29.94,North,0,0.0,0.6,61,0.00,,SKC,0.00,VWS V14.01,2013-03-26 12:04:00,
2013-03-26 08:09:00,32.3,20.4,29.94,North,0,0.0,0.8,61,0.00,,SKC,0.00,VWS V14.01,2013-03-26 12:09:00,
2013-03-26 08:14:00,32.3,20.4,29.95,NNW,338,0.0,0.8,61,0.00,,SKC,0.00,VWS V14.01,2013-03-26 12:14:00,
2013-03-26 08:19:00,32.5,20.6,29.95,NNW,338,0.8,0.8,61,0.00,,SKC,0.00,VWS V14.01,2013-03-26 12:19:00,
2013-03-26 08:24:00,32.5,20.6,29.95,NW,315,0.0,0.8,61,0.00,,SKC,0.00,VWS V14.01,2013-03-26 12:24:00,
2013-03-26 08:29:00,32.7,21.1,29.95,North,0,0.0,0.8,62,0.00,,SKC,0.00,VWS V14.01,2013-03-26 12:29:00,
2013-03-26 08:34:00,32.9,21.3,29.95,NNW,338,0.0,0.8,62,0.00,,SKC,0.00,VWS V14.01,2013-03-26 12:34:00,
2013-03-26 08:39:00,32.9,21.3,29.95,NNE,22,0.4,0.8,62,0.00,,SKC,0.00,VWS V14.01,2013-03-26 12:39:00,
2013-03-26 08:44:00,32.9,21.3,29.95,North,0,0.6,0.8,62,0.00,,SKC,0.00,VWS V14.01,2013-03-26 12:44:00,
2013-03-26 08:49:00,33.0,21.4,29.95,NNW,338,1.5,1.5,62,0.00,,SKC,0.00,VWS V14.01,2013-03-26 12:49:00,
2013-03-26 08:54:00,33.0,21.4,29.96,NNE,22,2.4,2.4,62,0.00,,SKC,0.00,VWS V14.01,2013-03-26 12:54:00,
2013-03-26 08:59:00,33.0,21.4,29.96,NW,315,0.0,3.3,62,0.00,,SKC,0.00,VWS V14.01,2013-03-26 12:59:00,
2013-03-26 09:04:00,33.4,21.8,29.96,North,0,0.8,4.6,62,0.00,,SKC,0.00,VWS V14.01,2013-03-26 13:04:00,
2013-03-26 09:09:00,33.4,21.8,29.96,NNW,338,1.1,4.6,62,0.00,,SKC,0.00,VWS V14.01,2013-03-26 13:09:00,
2013-03-26 09:14:00,33.8,22.2,29.96,WNW,292,4.0,4.6,62,0.00,,SKC,0.00,VWS V14.01,2013-03-26 13:14:00,
2013-03-26 09:19:00,33.9,22.3,29.96,NNW,338,1.1,3.5,62,0.00,,SKC,0.00,VWS V14.01,2013-03-26 13:19:00,
2013-03-26 09:24:00,34.1,22.5,29.96,North,0,0.0,3.5,62,0.00,,SKC,0.00,VWS V14.01,2013-03-26 13:24:00,
2013-03-26 09:29:00,34.3,22.6,29.96,North,0,0.8,3.5,62,0.00,,SKC,0.00,VWS V14.01,2013-03-26 13:29:00,
2013-03-26 09:34:00,34.7,22.6,29.96,North,0,0.2,1.3,61,0.00,,SKC,0.00,VWS V14.01,2013-03-26 13:34:00,
2013-03-26 09:39:00,34.8,22.7,29.96,NNW,338,0.0,1.3,61,0.00,,SKC,0.00,VWS V14.01,2013-03-26 13:39:00,
2013-03-26 09:44:00,35.0,22.9,29.97,NNW,338,0.0,1.3,61,0.00,,SKC,0.00,VWS V14.01,2013-03-26 13:44:00,
2013-03-26 09:49:00,35.2,23.1,29.97,North,0,0.0,4.0,61,0.00,,SKC,0.00,VWS V14.01,2013-03-26 13:49:00,
2013-03-26 09:54:00,35.6,23.1,29.96,North,0,0.0,4.0,60,0.00,,SKC,0.00,VWS V14.01,2013-03-26 13:54:00,
2013-03-26 09:59:00,35.7,23.2,29.96,NNW,338,0.6,4.0,60,0.00,,SKC,0.00,VWS V14.01,2013-03-26 13:59:00,
2013-03-26 10:04:00,35.7,23.2,29.96,NNW,338,3.1,4.9,60,0.00,,SKC,0.00,VWS V14.01,2013-03-26 14:04:00,
2013-03-26 10:09:00,36.3,23.8,29.96,North,0,2.2,4.9,60,0.00,,SKC,0.00,VWS V14.01,2013-03-26 14:09:00,
2013-03-26 10:15:00,36.3,23.4,29.96,NNE,22,2.4,4.9,59,0.00,,SKC,0.00,VWS V14.01,2013-03-26 14:15:00,
2013-03-26 10:20:00,36.5,23.5,29.97,North,0,3.3,3.3,59,0.00,,SKC,0.00,VWS V14.01,2013-03-26 14:20:00,
2013-03-26 10:25:00,36.8,23.4,29.97,NW,315,2.0,3.3,58,0.00,,SKC,0.00,VWS V14.01,2013-03-26 14:25:00,
2013-03-26 10:30:00,37.0,23.6,29.97,NW,315,6.0,6.0,58,0.00,,SKC,0.00,VWS V14.01,2013-03-26 14:30:00,
2013-03-26 10:35:00,37.7,24.3,29.97,North,0,0.0,4.4,58,0.00,,SKC,0.00,VWS V14.01,2013-03-26 14:35:00,
2013-03-26 10:40:00,37.5,23.7,29.97,NNW,338,3.8,4.9,57,0.00,,SKC,0.00,VWS V14.01,2013-03-26 14:40:00,
2013-03-26 10:45:00,37.9,24.0,29.97,NNW,338,1.1,4.9,57,0.00,,SKC,0.00,VWS V14.01,2013-03-26 14:45:00,
2013-03-26 10:50:00,37.9,23.6,29.97,NNE,22,1.3,4.4,56,0.00,,SKC,0.00,VWS V14.01,2013-03-26 14:50:00,
2013-03-26 10:55:00,38.3,24.0,29.97,NNW,338,0.0,4.4,56,0.00,,SKC,0.00,VWS V14.01,2013-03-26 14:55:00,
2013-03-26 11:00:00,38.8,24.5,29.97,North,0,0.0,4.6,56,0.00,,SKC,0.00,VWS V14.01,2013-03-26 15:00:00,
2013-03-26 11:05:00,39.3,24.5,29.97,NNE,22,2.2,2.2,55,0.00,,SKC,0.00,VWS V14.01,2013-03-26 15:05:00,
2013-03-26 11:10:00,39.0,24.2,29.97,NNE,22,1.7,2.2,55,0.00,,SKC,0.00,VWS V14.01,2013-03-26 15:10:00,
2013-03-26 11:15:00,39.3,24.5,29.97,NNE,22,0.2,2.2,55,0.00,,SKC,0.00,VWS V14.01,2013-03-26 15:15:00,
2013-03-26 11:20:00,39.9,25.1,29.97,North,0,1.5,1.5,55,0.00,,SKC,0.00,VWS V14.01,2013-03-26 15:20:00,
2013-03-26 11:25:00,40.6,25.3,29.97,NW,315,5.8,5.8,54,0.00,,SKC,0.00,VWS V14.01,2013-03-26 15:25:00,
2013-03-26 11:30:00,41.1,25.7,29.97,North,0,0.0,5.8,54,0.00,,SKC,0.00,VWS V14.01,2013-03-26 15:30:00,
2013-03-26 11:35:00,41.1,25.3,29.98,NNW,338,0.6,0.8,53,0.00,,SKC,0.00,VWS V14.01,2013-03-26 15:35:00,
2013-03-26 11:40:00,41.3,25.0,29.98,NW,315,5.1,5.1,52,0.00,,SKC,0.00,VWS V14.01,2013-03-26 15:40:00,
2013-03-26 11:45:00,41.7,25.4,29.98,NNW,338,5.5,5.5,52,0.00,,SKC,0.00,VWS V14.01,2013-03-26 15:45:00,
2013-03-26 11:50:00,41.9,24.6,29.98,NW,315,1.5,1.5,50,0.00,,SKC,0.00,VWS V14.01,2013-03-26 15:50:00,
2013-03-26 11:55:00,42.2,24.9,29.98,NW,315,4.6,5.5,50,0.00,,SKC,0.00,VWS V14.01,2013-03-26 15:55:00,
2013-03-26 12:00:00,42.4,24.6,29.98,NNE,22,3.3,5.5,49,0.00,,SKC,0.00,VWS V14.01,2013-03-26 16:00:00,
2013-03-26 12:05:00,42.9,25.1,29.98,WNW,292,0.0,3.3,49,0.00,,SKC,0.00,VWS V14.01,2013-03-26 16:05:00,
2013-03-26 12:10:00,42.9,25.1,29.98,NNE,22,1.7,3.3,49,0.00,,SKC,0.00,VWS V14.01,2013-03-26 16:10:00,
2013-03-26 12:15:00,42.8,24.0,29.98,NW,315,3.3,4.9,47,0.00,,SKC,0.00,VWS V14.01,2013-03-26 16:15:00,
2013-03-26 12:20:00,43.1,24.3,29.98,NNE,22,3.3,3.3,47,0.00,,SKC,0.00,VWS V14.01,2013-03-26 16:20:00,
2013-03-26 12:25:00,43.3,24.4,29.98,NNE,22,5.1,5.1,47,0.00,,SKC,0.00,VWS V14.01,2013-03-26 16:25:00,
2013-03-26 12:30:00,43.7,24.8,29.97,NNE,22,2.4,5.1,47,0.00,,SKC,0.00,VWS V14.01,2013-03-26 16:30:00,
2013-03-26 12:35:00,44.0,24.6,29.97,NNW,338,1.5,2.9,46,0.00,,SKC,0.00,VWS V14.01,2013-03-26 16:35:00,
2013-03-26 12:40:00,44.2,24.8,29.97,NNW,338,7.1,7.1,46,0.00,,SKC,0.00,VWS V14.01,2013-03-26 16:40:00,
2013-03-26 12:45:00,44.2,24.2,29.98,North,0,3.8,7.1,45,0.00,,SKC,0.00,VWS V14.01,2013-03-26 16:45:00,
2013-03-26 12:50:00,44.0,23.5,29.97,NNW,338,5.1,7.6,44,0.00,,SKC,0.00,VWS V14.01,2013-03-26 16:50:00,
2013-03-26 12:55:00,44.2,23.7,29.97,NNE,22,1.7,7.8,44,0.00,,SKC,0.00,VWS V14.01,2013-03-26 16:55:00,
2013-03-26 13:00:00,44.7,24.1,29.97,NW,315,4.6,7.8,44,0.00,,SKC,0.00,VWS V14.01,2013-03-26 17:00:00,
2013-03-26 13:05:00,45.5,24.3,29.97,NE,45,2.6,5.5,43,0.00,,SKC,0.00,VWS V14.01,2013-03-26 17:05:00,
2013-03-26 13:10:00,46.4,25.1,29.97,NW,315,3.8,5.5,43,0.00,,SKC,0.00,VWS V14.01,2013-03-26 17:10:00,
2013-03-26 13:15:00,46.9,25.0,29.97,NW,315,10.0,10.0,42,0.00,,SKC,0.00,VWS V14.01,2013-03-26 17:15:00,
2013-03-26 13:20:00,46.9,23.9,29.97,NW,315,5.3,5.3,40,0.00,,SKC,0.00,VWS V14.01,2013-03-26 17:20:00,
2013-03-26 13:25:00,47.3,24.2,29.97,NW,315,9.1,9.1,40,0.00,,SKC,0.00,VWS V14.01,2013-03-26 17:25:00,
2013-03-26 13:30:00,47.1,24.0,29.97,NNW,338,5.8,9.1,40,0.00,,SKC,0.00,VWS V14.01,2013-03-26 17:30:00,
2013-03-26 13:35:00,46.0,22.5,29.97,NNE,22,1.1,3.5,39,0.00,,SKC,0.00,VWS V14.01,2013-03-26 17:35:00,
2013-03-26 13:40:00,45.1,22.2,29.97,NNW,338,3.1,4.9,40,0.00,,SKC,0.00,VWS V14.01,2013-03-26 17:40:00,
2013-03-26 13:45:00,44.4,22.2,29.97,North,0,1.1,6.2,41,0.00,,SKC,0.00,VWS V14.01,2013-03-26 17:45:00,
2013-03-26 13:50:00,43.5,22.0,29.97,NW,315,6.2,6.2,42,0.00,,SKC,0.00,VWS V14.01,2013-03-26 17:50:00,
2013-03-26 13:55:00,43.1,22.7,29.97,NNW,338,1.3,6.2,44,0.00,,SKC,0.00,VWS V14.01,2013-03-26 17:55:00,
2013-03-26 14:00:00,42.6,22.2,29.98,NNE,22,3.1,6.2,44,0.00,,SKC,0.00,VWS V14.01,2013-03-26 18:00:00,
2013-03-26 14:05:00,42.2,22.4,29.98,North,0,1.3,1.3,45,0.00,,SKC,0.00,VWS V14.01,2013-03-26 18:05:00,
2013-03-26 14:11:00,42.2,22.4,29.98,North,0,1.3,2.0,45,0.00,,SKC,0.00,VWS V14.01,2013-03-26 18:11:00,
2013-03-26 14:16:00,42.2,22.4,29.97,North,0,0.8,2.0,45,0.00,,SKC,0.00,VWS V14.01,2013-03-26 18:16:00,
2013-03-26 14:21:00,42.2,22.4,29.97,NNE,22,3.5,3.5,45,0.00,,SKC,0.00,VWS V14.01,2013-03-26 18:21:00,
2013-03-26 14:26:00,42.4,22.0,29.97,North,0,0.0,3.5,44,0.00,,SKC,0.00,VWS V14.01,2013-03-26 18:26:00,
2013-03-26 14:31:00,42.6,21.7,29.97,North,0,0.6,0.6,43,0.00,,SKC,0.00,VWS V14.01,2013-03-26 18:31:00,
2013-03-26 14:36:00,42.9,22.0,29.97,NNE,22,0.0,0.6,43,0.00,,SKC,0.00,VWS V14.01,2013-03-26 18:36:00,
2013-03-26 14:41:00,43.3,22.3,29.97,NW,315,1.3,1.3,43,0.00,,SKC,0.00,VWS V14.01,2013-03-26 18:41:00,
2013-03-26 14:46:00,43.5,22.5,29.97,NNE,22,0.0,0.0,43,0.00,,SKC,0.00,VWS V14.01,2013-03-26 18:46:00,
2013-03-26 14:51:00,43.5,22.0,29.97,North,0,1.1,1.1,42,0.00,,SKC,0.00,VWS V14.01,2013-03-26 18:51:00,
2013-03-26 14:56:00,42.9,21.4,29.97,NNW,338,2.2,3.5,42,0.00,,SKC,0.00,VWS V14.01,2013-03-26 18:56:00,
2013-03-26 15:01:00,42.4,21.5,29.97,North,0,1.7,1.7,43,0.00,,SKC,0.00,VWS V14.01,2013-03-26 19:01:00,
2013-03-26 15:06:00,42.2,21.3,29.97,North,0,0.0,1.7,43,0.00,,SKC,0.00,VWS V14.01,2013-03-26 19:06:00,
2013-03-26 15:12:00,41.9,21.6,29.97,NNW,338,0.0,1.7,44,0.00,,SKC,0.00,VWS V14.01,2013-03-26 19:12:00,
2013-03-26 15:17:00,41.7,21.4,29.97,NE,45,4.6,4.6,44,0.00,,SKC,0.00,VWS V14.01,2013-03-26 19:17:00,
2013-03-26 15:22:00,41.7,21.9,29.97,North,0,0.4,4.6,45,0.00,,SKC,0.00,VWS V14.01,2013-03-26 19:22:00,
2013-03-26 15:27:00,41.9,21.6,29.97,NNW,338,0.0,4.6,44,0.00,,SKC,0.00,VWS V14.01,2013-03-26 19:27:00,
2013-03-26 15:32:00,42.2,21.9,29.97,NNW,338,1.3,1.3,44,0.00,,SKC,0.00,VWS V14.01,2013-03-26 19:32:00,
2013-03-26 15:37:00,42.2,21.3,29.97,NNW,338,0.6,1.5,43,0.00,,SKC,0.00,VWS V14.01,2013-03-26 19:37:00,
2013-03-26 15:42:00,42.4,21.5,29.97,NNE,22,2.0,4.2,43,0.00,,SKC,0.00,VWS V14.01,2013-03-26 19:42:00,
2013-03-26 15:47:00,42.4,20.4,29.97,North,0,0.0,5.3,41,0.00,,SKC,0.00,VWS V14.01,2013-03-26 19:47:00,
2013-03-26 15:52:00,42.4,20.4,29.97,NW,315,2.4,5.3,41,0.00,,SKC,0.00,VWS V14.01,2013-03-26 19:52:00,
2013-03-26 15:57:00,42.4,19.8,29.97,North,0,1.1,5.3,40,0.00,,SKC,0.00,VWS V14.01,2013-03-26 19:57:00,
2013-03-26 16:02:00,42.4,19.2,29.97,North,0,1.1,6.0,39,0.00,,SKC,0.00,VWS V14.01,2013-03-26 20:02:00,
2013-03-26 16:07:00,42.2,18.4,29.97,NW,315,8.9,8.9,38,0.00,,SKC,0.00,VWS V14.01,2013-03-26 20:07:00,
2013-03-26 16:12:00,41.9,18.2,29.97,NNW,338,7.6,8.9,38,0.00,,SKC,0.00,VWS V14.01,2013-03-26 20:12:00,
2013-03-26 16:17:00,41.7,18.0,29.97,WNW,292,0.6,1.1,38,0.00,,SKC,0.00,VWS V14.01,2013-03-26 20:17:00,
2013-03-26 16:22:00,41.7,18.6,29.97,NNW,338,1.7,5.8,39,0.00,,SKC,0.00,VWS V14.01,2013-03-26 20:22:00,
2013-03-26 16:27:00,41.9,19.4,29.97,NW,315,3.3,5.8,40,0.00,,SKC,0.00,VWS V14.01,2013-03-26 20:27:00,
2013-03-26 16:32:00,42.0,19.5,29.98,NNE,22,4.2,4.2,40,0.00,,SKC,0.00,VWS V14.01,2013-03-26 20:32:00,
2013-03-26 16:37:00,42.0,19.5,29.97,North,0,0.0,4.2,40,0.00,,SKC,0.00,VWS V14.01,2013-03-26 20:37:00,
2013-03-26 16:42:00,41.9,19.4,29.98,NW,315,2.6,4.2,40,0.00,,SKC,0.00,VWS V14.01,2013-03-26 20:42:00,
2013-03-26 16:47:00,41.9,19.9,29.98,NNE,22,5.5,5.5,41,0.00,,SKC,0.00,VWS V14.01,2013-03-26 20:47:00,
2013-03-26 16:52:00,41.7,19.8,29.98,NNW,338,3.8,5.5,41,0.00,,SKC,0.00,VWS V14.01,2013-03-26 20:52:00,
2013-03-26 16:57:00,41.1,18.6,29.98,NNW,338,0.0,5.5,40,0.00,,SKC,0.00,VWS V14.01,2013-03-26 20:57:00,
2013-03-26 17:02:00,40.6,18.8,29.98,NNW,338,1.3,1.3,41,0.00,,SKC,0.00,VWS V14.01,2013-03-26 21:02:00,
2013-03-26 17:08:00,40.4,18.6,29.98,West,270,0.0,1.3,41,0.00,,SKC,0.00,VWS V14.01,2013-03-26 21:08:00,
2013-03-26 17:13:00,40.2,19.0,29.98,North,0,0.0,2.4,42,0.00,,SKC,0.00,VWS V14.01,2013-03-26 21:13:00,
2013-03-26 17:18:00,40.1,18.9,29.98,NW,315,1.5,8.7,42,0.00,,SKC,0.00,VWS V14.01,2013-03-26 21:18:00,
2013-03-26 17:23:00,40.2,19.0,29.98,North,0,0.0,8.7,42,0.00,,SKC,0.00,VWS V14.01,2013-03-26 21:23:00,
2013-03-26 17:28:00,40.2,19.0,29.99,WNW,292,4.0,8.7,42,0.00,,SKC,0.00,VWS V14.01,2013-03-26 21:28:00,
2013-03-26 17:33:00,40.2,19.0,29.99,NW,315,4.6,4.6,42,0.00,,SKC,0.00,VWS V14.01,2013-03-26 21:33:00,
2013-03-26 17:38:00,40.1,18.9,29.99,NW,315,2.2,4.9,42,0.00,,SKC,0.00,VWS V14.01,2013-03-26 21:38:00,
2013-03-26 17:43:00,40.1,18.9,29.99,North,0,1.1,4.9,42,0.00,,SKC,0.00,VWS V14.01,2013-03-26 21:43:00,
2013-03-26 17:48:00,40.1,19.4,29.99,NW,315,6.2,6.2,43,0.00,,SKC,0.00,VWS V14.01,2013-03-26 21:48:00,
2013-03-26 17:53:00,39.9,18.7,29.99,NNW,338,5.1,7.3,42,0.00,,SKC,0.00,VWS V14.01,2013-03-26 21:53:00,
2013-03-26 17:58:00,39.9,18.7,29.99,NNW,338,4.0,7.3,42,0.00,,SKC,0.00,VWS V14.01,2013-03-26 21:58:00,
2013-03-26 18:03:00,39.7,19.0,29.99,NNW,338,6.0,6.0,43,0.00,,SKC,0.00,VWS V14.01,2013-03-26 22:03:00,
2013-03-26 18:08:00,39.7,19.0,29.99,NNW,338,5.3,6.0,43,0.00,,SKC,0.00,VWS V14.01,2013-03-26 22:08:00,
2013-03-26 18:13:00,39.7,19.0,29.99,NNW,338,0.0,6.0,43,0.00,,SKC,0.00,VWS V14.01,2013-03-26 22:13:00,
2013-03-26 18:18:00,39.7,19.0,29.99,NW,315,2.9,2.9,43,0.00,,SKC,0.00,VWS V14.01,2013-03-26 22:18:00,
2013-03-26 18:23:00,39.3,18.7,29.99,NNW,338,0.0,5.3,43,0.00,,SKC,0.00,VWS V14.01,2013-03-26 22:23:00,
2013-03-26 18:28:00,39.5,18.9,29.99,NW,315,1.7,5.3,43,0.00,,SKC,0.00,VWS V14.01,2013-03-26 22:28:00,
2013-03-26 18:33:00,39.5,18.9,29.99,NW,315,2.9,2.9,43,0.00,,SKC,0.00,VWS V14.01,2013-03-26 22:33:00,
2013-03-26 18:38:00,39.2,18.6,29.99,NNW,338,0.0,2.9,43,0.00,,SKC,0.00,VWS V14.01,2013-03-26 22:38:00,
2013-03-26 18:43:00,39.3,18.7,29.99,NNW,338,0.8,2.9,43,0.00,,SKC,0.00,VWS V14.01,2013-03-26 22:43:00,
2013-03-26 18:48:00,39.3,18.7,30.00,NW,315,2.6,2.6,43,0.00,,SKC,0.00,VWS V14.01,2013-03-26 22:48:00,
2013-03-26 18:53:00,39.2,18.6,30.00,NNW,338,0.6,2.6,43,0.00,,SKC,0.00,VWS V14.01,2013-03-26 22:53:00,
2013-03-26 18:58:00,39.2,18.6,30.00,NW,315,1.7,2.6,43,0.00,,SKC,0.00,VWS V14.01,2013-03-26 22:58:00,
2013-03-26 19:03:00,38.8,18.8,30.00,NW,315,3.8,3.8,44,0.00,,SKC,0.00,VWS V14.01,2013-03-26 23:03:00,
2013-03-26 19:08:00,38.8,19.3,30.00,NW,315,5.1,5.3,45,0.00,,SKC,0.00,VWS V14.01,2013-03-26 23:08:00,
2013-03-26 19:13:00,38.3,18.8,30.00,NNW,338,3.5,5.3,45,0.00,,SKC,0.00,VWS V14.01,2013-03-26 23:13:00,
2013-03-26 19:18:00,38.3,19.4,30.00,NW,315,3.3,3.3,46,0.00,,SKC,0.00,VWS V14.01,2013-03-26 23:18:00,
2013-03-26 19:23:00,38.3,18.8,30.01,North,0,1.5,3.3,45,0.00,,SKC,0.00,VWS V14.01,2013-03-26 23:23:00,
2013-03-26 19:28:00,38.1,18.6,30.01,NW,315,2.6,3.3,45,0.00,,SKC,0.00,VWS V14.01,2013-03-26 23:28:00,
2013-03-26 19:33:00,37.9,18.5,30.01,NNW,338,2.6,2.6,45,0.00,,SKC,0.00,VWS V14.01,2013-03-26 23:33:00,
2013-03-26 19:38:00,37.7,18.3,30.01,NNW,338,0.6,2.6,45,0.00,,SKC,0.00,VWS V14.01,2013-03-26 23:38:00,
2013-03-26 19:43:00,37.5,18.6,30.01,NNW,338,3.5,3.5,46,0.00,,SKC,0.00,VWS V14.01,2013-03-26 23:43:00,
2013-03-26 19:48:00,37.4,18.5,30.01,NNW,338,1.3,4.9,46,0.00,,SKC,0.00,VWS V14.01,2013-03-26 23:48:00,
2013-03-26 19:53:00,37.0,18.7,30.01,NNW,338,3.5,4.9,47,0.00,,SKC,0.00,VWS V14.01,2013-03-26 23:53:00,
2013-03-26 19:58:00,37.0,18.7,30.01,NW,315,3.8,4.9,47,0.00,,SKC,0.00,VWS V14.01,2013-03-26 23:58:00,
2013-03-26 20:03:00,37.0,19.1,30.01,NW,315,1.3,1.7,48,0.00,,SKC,0.00,VWS V14.01,2013-03-27 00:03:00,
2013-03-26 20:08:00,37.0,19.6,30.01,NNW,338,2.2,2.2,49,0.00,,SKC,0.00,VWS V14.01,2013-03-27 00:08:00,
2013-03-26 20:13:00,36.8,19.5,30.02,NNW,338,0.4,5.3,49,0.00,,SKC,0.00,VWS V14.01,2013-03-27 00:13:00,
2013-03-26 20:18:00,36.8,19.5,30.02,NNW,338,1.7,3.3,49,0.00,,SKC,0.00,VWS V14.01,2013-03-27 00:18:00,
2013-03-26 20:24:00,36.8,19.5,30.02,NW,315,1.3,3.3,49,0.00,,SKC,0.00,VWS V14.01,2013-03-27 00:24:00,
2013-03-26 20:28:00,37.0,20.1,30.02,NNW,338,2.4,3.3,50,0.00,,SKC,0.00,VWS V14.01,2013-03-27 00:28:00,
2013-03-26 20:34:00,36.6,19.7,30.02,NNW,338,2.0,2.0,50,0.00,,SKC,0.00,VWS V14.01,2013-03-27 00:34:00,
2013-03-26 20:39:00,36.6,19.7,30.02,NW,315,1.5,2.0,50,0.00,,SKC,0.00,VWS V14.01,2013-03-27 00:39:00,
2013-03-26 20:44:00,36.5,19.6,30.02,NW,315,3.8,3.8,50,0.00,,SKC,0.00,VWS V14.01,2013-03-27 00:44:00,
2013-03-26 20:49:00,36.8,19.9,30.03,NW,315,5.5,5.5,50,0.00,,SKC,0.00,VWS V14.01,2013-03-27 00:49:00,
2013-03-26 20:54:00,36.5,20.1,30.03,WNW,292,4.0,5.5,51,0.00,,SKC,0.00,VWS V14.01,2013-03-27 00:54:00,
2013-03-26 20:59:00,36.3,19.9,30.03,NW,315,1.7,5.5,51,0.00,,SKC,0.00,VWS V14.01,2013-03-27 00:59:00,
2013-03-26 21:04:00,36.5,20.1,30.03,NW,315,2.6,2.6,51,0.00,,SKC,0.00,VWS V14.01,2013-03-27 01:04:00,
2013-03-26 21:09:00,36.5,20.1,30.03,NW,315,1.7,2.6,51,0.00,,SKC,0.00,VWS V14.01,2013-03-27 01:09:00,
2013-03-26 21:14:00,36.1,20.2,30.03,NW,315,1.7,4.2,52,0.00,,SKC,0.00,VWS V14.01,2013-03-27 01:14:00,
2013-03-26 21:19:00,36.3,20.4,30.03,NW,315,2.0,2.0,52,0.00,,SKC,0.00,VWS V14.01,2013-03-27 01:19:00,
2013-03-26 21:24:00,35.9,20.5,30.03,NNW,338,3.5,9.8,53,0.00,,SKC,0.00,VWS V14.01,2013-03-27 01:24:00,
2013-03-26 21:29:00,35.9,20.9,30.04,NW,315,4.6,9.8,54,0.00,,SKC,0.00,VWS V14.01,2013-03-27 01:29:00,
2013-03-26 21:34:00,35.7,21.1,30.04,NW,315,5.3,5.3,55,0.00,,SKC,0.00,VWS V14.01,2013-03-27 01:34:00,
2013-03-26 21:39:00,35.7,21.6,30.04,NNW,338,4.4,5.3,56,0.00,,SKC,0.00,VWS V14.01,2013-03-27 01:39:00,
2013-03-26 21:44:00,35.4,21.7,30.04,NW,315,4.6,5.3,57,0.00,,SKC,0.00,VWS V14.01,2013-03-27 01:44:00,
2013-03-26 21:49:00,35.2,21.5,30.04,NW,315,1.1,5.1,57,0.00,,SKC,0.00,VWS V14.01,2013-03-27 01:49:00,
2013-03-26 21:54:00,35.0,21.7,30.04,NW,315,2.4,5.1,58,0.00,,SKC,0.00,VWS V14.01,2013-03-27 01:54:00,
2013-03-26 21:59:00,34.8,22.0,30.04,NNW,338,3.5,5.1,59,0.00,,SKC,0.00,VWS V14.01,2013-03-27 01:59:00,
2013-03-26 22:04:00,34.7,22.2,30.04,NW,315,2.0,5.5,60,0.00,,SKC,0.00,VWS V14.01,2013-03-27 02:04:00,
2013-03-26 22:09:00,34.7,22.6,30.05,NW,315,4.0,5.5,61,0.00,,SKC,0.00,VWS V14.01,2013-03-27 02:09:00,
2013-03-26 22:14:00,34.7,22.6,30.04,NNW,338,4.0,5.5,61,0.00,,SKC,0.00,VWS V14.01,2013-03-27 02:14:00,
2013-03-26 22:19:00,34.5,22.8,30.05,NNW,338,4.0,4.4,62,0.00,,SKC,0.00,VWS V14.01,2013-03-27 02:19:00,
2013-03-26 22:24:00,34.5,22.8,30.05,NW,315,4.9,4.9,62,0.00,,SKC,0.00,VWS V14.01,2013-03-27 02:24:00,
2013-03-26 22:29:00,34.5,22.8,30.04,NNW,338,4.6,4.9,62,0.00,,SKC,0.00,VWS V14.01,2013-03-27 02:29:00,
2013-03-26 22:34:00,34.5,23.2,30.04,NW,315,0.8,1.5,63,0.00,,SKC,0.00,VWS V14.01,2013-03-27 02:34:00,
2013-03-26 22:39:00,34.3,23.0,30.05,NW,315,4.2,4.2,63,0.00,,SKC,0.00,VWS V14.01,2013-03-27 02:39:00,
2013-03-26 22:44:00,34.3,23.4,30.04,NW,315,3.8,7.6,64,0.00,,SKC,0.00,VWS V14.01,2013-03-27 02:44:00,
2013-03-26 22:49:00,34.3,23.4,30.05,NNW,338,3.1,4.6,64,0.00,,SKC,0.00,VWS V14.01,2013-03-27 02:49:00,
2013-03-26 22:54:00,34.3,23.4,30.05,NW,315,7.8,7.8,64,0.00,,SKC,0.00,VWS V14.01,2013-03-27 02:54:00,
2013-03-26 22:59:00,34.1,23.6,30.05,NW,315,3.8,7.8,65,0.00,,SKC,0.00,VWS V14.01,2013-03-27 02:59:00,
2013-03-26 23:04:00,34.3,23.8,30.05,NW,315,4.0,4.0,65,0.00,,SKC,0.00,VWS V14.01,2013-03-27 03:04:00,
2013-03-26 23:09:00,34.1,23.6,30.05,NW,315,1.1,4.6,65,0.00,,SKC,0.00,VWS V14.01,2013-03-27 03:09:00,
2013-03-26 23:14:00,34.1,23.6,30.05,NNW,338,4.9,4.9,65,0.00,,SKC,0.00,VWS V14.01,2013-03-27 03:14:00,
2013-03-26 23:19:00,34.1,23.6,30.05,NW,315,2.0,4.4,65,0.00,,SKC,0.00,VWS V14.01,2013-03-27 03:19:00,
2013-03-26 23:24:00,33.9,23.4,30.05,NNW,338,0.8,4.4,65,0.00,,SKC,0.00,VWS V14.01,2013-03-27 03:24:00,
2013-03-26 23:29:00,34.1,23.6,30.05,NNW,338,3.3,4.4,65,0.00,,SKC,0.00,VWS V14.01,2013-03-27 03:29:00,
2013-03-26 23:34:00,33.9,23.8,30.05,NW,315,4.4,4.4,66,0.00,,SKC,0.00,VWS V14.01,2013-03-27 03:34:00,
2013-03-26 23:39:00,33.9,23.8,30.05,NNW,338,0.0,4.4,66,0.00,,SKC,0.00,VWS V14.01,2013-03-27 03:39:00,
2013-03-26 23:44:00,33.9,23.8,30.05,NNW,338,1.5,4.4,66,0.00,,SKC,0.00,VWS V14.01,2013-03-27 03:44:00,
2013-03-26 23:49:00,33.9,23.8,30.05,NW,315,2.6,2.9,66,0.00,,SKC,0.00,VWS V14.01,2013-03-27 03:49:00,
2013-03-26 23:54:00,33.9,23.8,30.05,NW,315,2.2,2.9,66,0.00,,SKC,0.00,VWS V14.01,2013-03-27 03:54:00,
2013-03-26 23:59:00,33.9,23.8,30.05,NNW,338,2.2,2.9,66,0.00,,SKC,0.00,VWS V14.01,2013-03-27 03:59:00,